SCP
0 0 0 0 0 0 0 0 0 0 1 1 1 2 1 1 2 3 3 4 4 5 7 6 3 2 1 1 1 2 2 2 2 2 1 1 1 1 1 0 0 0 0 0
0 0 0 0 0 0 0 0 0 0 1 1 1 1 1 1 1 2 3 3 4 6 7 6 4 2 1 1 1 2 2 2 2 2 2 1 1 1 1 0 0 0 0 0
0 0 0 0 0 0 0 0 0 1 1 1 1 0 0 0 1 2 3 3 4 5 7 6 4 2 1 1 2 2 2 2 2 2 2 2 1 1 1 1 0 0 0 1
0 0 0 0 0 0 0 0 0 1 1 1 0 0 0 0 1 2 3 4 4 5 6 5 3 2 2 2 2 2 2 1 1 2 3 3 2 1 1 1 1 0 1 1
0 0 0 0 0 0 0 0 0 0 0 0 0 0 0 0 1 2 3 4 4 4 5 4 3 2 2 2 2 2 1 1 1 2 2 3 3 2 1 1 1 0 0 0
0 0 0 0 0 0 0 0 0 0 0 0 0 0 0 0 0 1 2 3 3 3 4 3 3 2 2 2 2 2 1 1 2 2 2 2 3 2 2 1 1 1 0 0
0 0 0 0 0 0 0 0 0 0 0 0 0 0 0 0 0 1 1 2 2 2 3 3 2 2 2 2 2 2 2 2 2 2 2 2 2 3 2 2 1 1 1 1
0 0 0 0 0 0 0 0 0 0 0 0 0 0 0 0 0 0 1 1 1 2 2 2 2 2 2 2 2 2 2 2 2 2 2 2 2 2 2 2 2 1 1 1
0 0 0 0 0 0 0 0 0 0 0 0 0 0 0 0 0 0 1 1 1 2 2 2 1 1 2 2 2 2 2 2 2 2 3 2 2 2 2 2 2 2 2 2
0 0 0 0 0 0 0 0 0 0 0 0 0 0 0 0 0 1 1 1 2 2 2 2 2 2 2 2 2 2 2 2 3 3 3 3 2 3 3 2 2 2 3 3
0 0 0 0 0 0 0 0 0 0 0 0 0 0 0 0 1 1 1 1 1 2 2 2 2 2 2 2 2 2 2 2 3 3 3 3 3 3 3 3 3 3 3 4
0 0 0 0 0 0 0 0 0 0 0 0 0 0 0 0 1 1 1 1 1 1 2 2 2 2 2 3 3 3 3 3 3 3 3 3 3 3 3 3 3 3 4 4
0 0 0 0 0 0 0 0 0 0 0 0 0 0 0 1 1 1 1 1 1 1 2 2 3 3 3 3 3 3 3 3 3 3 3 4 4 4 4 3 3 3 3 4
0 0 0 0 0 0 0 0 0 0 0 0 0 0 0 1 1 1 1 1 2 2 2 3 4 4 3 3 3 3 4 4 5 5 5 5 6 6 6 5 4 3 3 3
0 0 0 0 0 0 1 1 1 1 1 1 1 0 1 1 2 2 2 2 2 3 3 4 4 4 3 3 4 4 4 5 5 6 6 6 7 8 8 7 5 4 4 4
0 0 0 0 0 1 1 1 1 1 1 1 1 1 2 3 3 3 3 3 3 3 4 4 4 3 3 4 5 5 5 5 5 5 6 5 6 7 9 9 8 6 5 5
0 0 0 0 0 1 1 1 1 1 2 2 2 2 3 4 4 4 4 3 3 3 4 4 4 3 2 4 5 6 6 5 5 5 5 4 5 7 9 10 10 9 7 6
0 0 0 0 0 0 1 1 1 1 1 2 2 2 4 5 5 5 4 4 4 4 4 4 4 3 3 4 5 5 5 5 5 5 5 4 5 7 10 12 13 12 11 9
0 0 0 0 0 1 1 1 2 1 2 2 2 3 5 5 5 4 4 5 5 5 5 5 4 4 4 4 5 5 5 5 5 5 5 4 5 7 10 13 14 14 13 11
0 0 0 0 0 0 1 2 2 2 2 2 3 4 6 5 3 3 5 6 7 6 6 5 5 5 5 5 6 7 7 6 5 5 5 4 4 5 7 10 11 12 12 11
0 0 0 0 0 0 1 2 2 1 1 2 3 5 6 6 4 5 7 9 8 7 6 6 6 6 6 8 10 10 9 6 5 5 4 4 3 3 4 5 5 7 8 8
0 0 0 0 0 0 1 2 2 1 2 2 3 5 7 7 7 8 10 10 9 8 7 7 8 9 10 12 14 13 9 5 5 5 4 4 3 2 2 2 2 3 4 4
0 0 0 1 1 1 1 2 2 2 2 3 4 5 6 7 8 10 11 11 10 10 10 10 10 11 12 13 14 13 9 5 5 5 4 3 2 1 1 1 1 2 2 2
1 1 1 1 2 2 3 3 3 3 4 4 4 5 7 9 10 11 12 12 12 13 12 12 12 11 10 10 10 9 6 4 4 4 3 2 2 1 1 1 1 1 1 1
1 1 1 2 2 3 4 4 4 6 6 6 6 6 7 9 10 11 12 13 13 13 14 14 12 10 7 6 5 5 4 4 3 3 2 1 1 1 1 1 1 1 1 1
1 1 1 1 2 3 3 3 5 7 8 7 7 6 7 8 8 9 11 12 12 13 14 14 12 9 6 4 4 4 5 4 3 2 1 1 1 1 2 1 1 1 1 1
Wind_Speed
4 6 2 5 5 6 6 5 4 3 3 4 3 2 3 5 5 6 5 5 5 5 4 4 4 4 4 3 3 3 2 2 2 2 1 1 0 0 0 1 1 1 1 2
6 0 4 3 3 4 5 4 2 1 2 3 1 2 2 5 7 7 8 8 7 5 4 5 5 4 4 4 4 3 3 3 2 2 2 1 1 1 1 1 0 1 1 1
4 4 2 3 4 4 2 5 5 4 3 4 3 3 2 3 4 4 6 7 7 9 8 7 6 6 5 5 4 4 3 3 3 2 2 2 2 1 1 1 1 0 1 1
2 2 2 3 3 4 2 4 6 6 5 1 1 2 5 3 3 5 6 7 8 8 8 7 7 7 6 6 4 4 3 3 2 3 3 3 2 1 1 1 1 1 0 0
2 2 2 2 3 4 2 4 7 6 5 3 2 1 8 1 5 8 8 8 9 8 9 9 9 8 7 6 5 4 3 3 2 3 3 3 2 1 0 0 1 1 1 1
3 2 3 3 1 4 7 8 8 7 5 2 2 2 7 5 7 6 6 8 8 8 9 8 7 6 6 5 5 4 4 3 3 4 3 3 3 2 1 0 0 1 1 1
3 3 1 2 4 3 6 8 5 4 4 4 2 2 10 7 6 7 7 8 8 8 8 8 8 8 7 7 6 5 5 4 3 4 3 3 3 3 2 1 1 0 1 1
2 4 3 2 5 5 4 9 9 6 5 4 1 5 9 6 4 4 4 5 6 7 7 8 9 9 8 8 7 6 6 5 4 4 3 3 3 2 1 1 1 1 1 1
5 5 4 2 3 9 6 3 6 8 2 0 4 7 9 2 1 1 3 5 6 7 8 8 8 8 8 8 9 8 7 5 5 4 3 3 3 2 2 1 1 1 1 1
7 3 3 2 4 5 5 9 6 7 6 2 4 4 6 5 5 3 4 6 7 6 6 6 6 7 7 7 7 7 7 6 5 4 4 3 3 2 2 1 1 1 0 0
5 4 3 2 3 5 4 4 6 5 5 7 3 8 8 8 7 8 8 7 7 7 7 7 6 6 6 6 6 7 6 5 5 4 4 3 2 2 2 2 1 1 1 1
3 6 2 5 3 2 4 7 8 6 4 4 5 9 5 5 6 7 7 6 6 6 6 5 6 6 6 6 6 6 6 6 5 5 4 4 3 3 2 2 1 1 1 1
5 6 2 5 5 2 3 4 4 6 6 5 5 9 4 1 2 4 6 6 5 6 5 5 5 6 6 6 5 5 5 5 5 5 5 4 3 3 3 2 1 1 2 2
7 5 7 9 8 4 2 3 4 6 5 5 8 8 7 4 3 4 5 6 6 6 6 6 6 6 6 6 6 6 5 5 5 5 5 4 3 3 3 2 2 2 2 3
5 4 3 4 4 3 3 4 5 5 8 9 8 8 10 8 7 7 6 5 6 6 6 7 7 6 6 6 6 6 5 5 5 5 5 4 3 3 3 3 3 2 3 3
4 3 2 1 1 2 2 3 6 4 4 4 3 7 8 4 2 3 5 6 8 8 8 7 7 7 7 7 7 6 5 5 5 5 4 4 4 4 4 3 3 3 3 3
2 4 3 2 2 2 3 5 5 3 3 6 7 8 3 2 4 6 7 7 8 9 9 9 8 8 7 7 7 7 6 6 6 5 5 4 5 4 4 4 4 3 2 2
5 4 3 2 2 4 9 3 4 5 3 4 4 4 4 6 5 3 4 7 7 7 8 8 7 7 5 5 6 7 7 6 6 5 5 5 5 5 4 4 4 3 2 2
5 7 4 3 3 5 6 2 3 4 3 3 3 3 1 0 2 2 2 5 6 7 7 7 7 7 7 7 8 8 7 6 6 6 5 4 5 4 4 4 4 3 3 2
4 4 6 4 4 6 7 4 2 4 4 3 3 3 2 4 2 5 3 3 3 3 4 6 7 7 7 8 9 9 7 6 6 5 5 4 4 4 4 4 3 3 3 3
3 3 3 4 4 7 6 5 1 4 8 3 3 3 5 5 6 4 2 2 4 4 5 7 8 7 7 8 9 8 7 6 5 4 5 5 4 4 4 4 3 4 4 4
3 3 3 4 4 7 4 2 3 5 3 2 2 3 4 3 1 2 3 3 5 6 6 7 7 6 5 7 8 7 6 5 6 6 5 5 4 4 4 4 4 4 4 4
2 5 5 6 7 5 2 3 4 3 3 3 2 2 3 2 2 2 2 4 4 6 6 6 8 7 5 5 7 7 6 6 6 6 5 4 4 3 4 5 5 4 4 3
2 1 2 2 5 5 5 4 3 2 3 3 2 2 3 3 3 3 3 4 5 5 5 6 8 7 5 4 5 5 6 6 7 6 5 4 4 3 3 3 3 3 3 3
3 0 1 2 5 5 4 3 4 3 2 1 2 0 2 3 3 4 5 4 4 4 4 6 7 7 6 5 5 5 5 6 7 6 5 4 3 3 3 2 2 2 2 3
3 4 4 5 5 3 6 5 4 3 2 0 1 1 2 3 4 4 4 4 4 4 4 4 5 6 6 6 5 4 5 6 7 5 4 3 3 3 3 3 2 2 1 1
Wind_Direction
30 73 135 201 185 175 165 161 187 216 173 143 193 219 206 184 188 196 197 201 205 206 196 167 168 159 154 160 158 167 166 162 139 122 130 134 183 243 283 251 233 219 200 182
41 357 222 177 146 135 141 145 153 57 108 134 167 267 234 195 201 200 199 202 201 197 180 173 169 163 173 181 179 178 181 171 167 157 148 153 144 171 216 282 299 215 205 198
160 233 174 128 119 114 144 169 175 158 93 65 75 333 271 235 207 207 205 200 197 194 191 185 180 180 178 188 193 189 183 174 174 158 118 88 67 39 27 6 329 277 201 203
200 242 145 120 156 141 224 215 147 130 111 33 102 273 284 246 240 222 215 202 201 199 184 181 182 185 189 192 186 180 172 168 167 152 142 141 145 174 242 257 274 319 46 254
225 182 135 162 191 154 163 88 100 97 99 58 27 121 284 288 247 240 222 209 203 195 185 182 186 189 189 180 174 173 165 164 158 151 153 147 153 192 238 342 360 6 6 359
233 236 197 188 114 119 115 71 60 52 65 24 251 167 278 239 223 235 217 206 198 189 186 183 180 172 173 169 166 164 162 167 157 153 156 161 170 184 175 257 13 349 338 336
332 318 271 136 94 55 93 91 53 17 11 257 253 200 252 253 231 221 217 204 192 182 178 177 175 177 178 175 175 169 166 175 167 160 169 177 182 179 187 208 220 247 302 305
155 277 253 180 163 164 157 134 150 176 211 266 305 238 256 268 254 222 204 187 177 177 179 183 186 184 183 181 176 172 175 181 173 170 180 181 175 177 200 207 207 225 252 271
168 242 275 232 176 136 133 136 148 123 130 344 281 286 299 291 269 195 173 168 182 186 184 185 185 184 182 181 180 179 178 181 180 177 169 169 172 177 192 196 202 239 272 277
154 211 283 308 84 40 127 139 106 116 143 218 290 279 256 256 235 214 194 191 194 190 188 185 182 182 180 181 175 170 173 180 180 174 175 175 176 182 184 169 179 198 272 57
138 157 293 11 156 165 107 96 104 112 148 152 215 265 231 219 210 201 207 200 192 189 190 185 181 176 171 168 168 169 172 171 170 174 167 162 169 171 166 171 197 195 140 102
136 125 227 261 261 187 156 161 146 148 190 167 172 261 267 221 214 199 204 199 191 186 180 173 167 161 165 172 170 170 172 175 177 170 162 169 172 163 160 168 192 170 131 115
133 115 88 339 342 18 114 133 134 121 116 149 170 260 307 324 201 200 198 188 179 174 163 151 152 161 169 172 168 171 170 171 167 160 159 162 166 163 163 167 164 132 120 107
119 117 160 192 213 196 166 157 149 127 140 184 215 245 286 277 231 214 203 189 175 170 162 159 165 169 168 165 164 168 167 159 156 155 154 158 164 162 155 141 127 120 115 108
101 139 195 221 222 183 188 185 174 175 178 180 219 225 247 237 220 213 198 180 166 165 171 175 175 174 168 161 159 164 163 158 156 154 158 161 151 139 128 118 112 105 102 103
74 130 134 281 237 194 218 213 189 198 183 201 216 250 254 256 200 189 186 176 178 181 185 183 175 170 172 168 167 163 162 154 146 148 153 141 134 134 129 125 114 102 94 91
87 111 108 238 290 83 253 224 189 185 191 174 203 238 262 244 216 201 193 188 191 190 185 182 180 179 178 174 167 161 153 142 142 146 144 143 142 141 140 137 125 122 118 106
138 111 122 142 93 210 239 229 178 173 207 211 231 251 219 217 223 217 196 190 193 187 182 182 176 176 173 159 146 138 137 140 141 139 139 146 145 145 142 137 143 148 139 134
157 138 125 128 172 258 288 251 179 175 244 233 229 260 274 85 53 326 240 197 194 187 180 174 166 161 153 148 143 137 138 141 144 147 151 156 145 144 149 150 152 149 140 131
67 106 122 134 161 222 244 269 239 139 248 257 208 211 153 106 129 259 244 180 173 155 146 144 139 137 146 147 140 139 147 152 160 163 159 147 137 152 163 161 152 137 132 135
41 55 126 160 198 252 261 294 80 161 234 267 218 201 170 182 212 233 186 167 156 136 134 136 136 142 150 145 143 148 152 165 160 143 137 134 141 149 150 144 138 134 126 116
172 150 175 154 184 243 297 30 169 221 273 276 226 201 187 206 219 133 133 133 131 130 131 133 131 130 136 144 147 150 161 157 137 135 136 138 140 138 138 138 134 130 127 120
196 190 186 191 214 247 282 239 257 240 254 260 232 246 180 171 185 154 141 133 132 134 138 133 131 129 131 141 148 156 158 143 138 135 139 135 130 125 134 143 143 138 137 138
286 139 154 265 272 283 291 288 289 271 258 262 241 218 183 177 173 157 139 132 132 131 137 132 128 130 133 134 139 144 140 137 135 140 145 142 139 131 125 128 143 151 159 162
259 273 163 267 280 308 305 303 297 306 320 1 18 273 187 158 152 147 136 132 134 130 132 136 140 145 143 140 135 133 138 141 141 145 149 145 145 145 139 135 142 171 192 193
225 196 185 229 239 235 270 291 300 309 316 338 93 54 74 121 132 120 116 119 125 128 133 137 142 143 142 138 135 132 141 150 149 151 155 157 156 152 150 145 116 69 109 130